Terug naar catalogus

STARLINK-36569

ActiefCommunicatieSSO
NORAD 67553·PAYLOAD·🇺🇸 United States

Gelanceerd Jan 22, 2026 vanaf Vandenberg Space Force Base

Loading…

Volgende Passages (komende 24 uur)

TLE

VersSource: CelesTrak SupGP

Epoch: Sep 14, 2026, 21:11 UTC

1 67553C 26014X   26257.88312500 -.00029611  00000+0 -91950-3 0  2572
2 67553  97.2848 143.3595 0001665  94.4806 114.0260 15.33443029    14

Volg STARLINK-36569 in realtime met AllMySat

Download on the App Store